Regional Weather Roundup
Issued by NWS State College, PA

Home | Current Version | Previous Version | Text Only | Print | Product List | Glossary Off
Versions: 1 2 3 4 5 6 7 8 9 10 11 12 13 14 15 16 17 18 19 20 21 22 23 24 25 26 27 28 29 30 31 32 33 34 35 36 37 38 39 40 41 42 43 44 45 46 47 48 49 50

000
ASUS41 KCTP 140110
RWRCTP

REGIONAL WEATHER ROUNDUP
NATIONAL WEATHER SERVICE STATE COLLEGE PA
800 PM EST SAT FEB 13 2016

Note: "fair" indicates few or no clouds below 12,000 feet with no
significant weather and/or obstructions to visibility.

* = STATION THAT DOES NOT REPORT PRECIPITATION /E.G. RAIN...SNOW...ETC/
    THUNDER OR FOG.

PAZ002>004-007>009-013>016-020>023-029>032-140200-
WESTERN PENNSYLVANIA

CITY           SKY/WX    TMP DP  RH WIND       PRES   REMARKS
ERIE           CLOUDY    11  -3  53 NW14G29   30.41S WCI  -5
MEADVILLE      LGT SNOW   7  -4  60 NW9       30.34R WCI  -7
FRANKLIN*      CLOUDY     5  -6  61 NW8       30.34S WCI  -8
NEW CASTLE     NOT AVBL
BEAVER COUNTY  NOT AVBL
BUTLER*        PTCLDY     7   0  72 W3        30.41S
PITTSBURGH INT PTCLDY     6  -2  69 W5        30.40R WCI  -3
PITTSBURGH     CLEAR      8   0  69 W7        30.39R WCI  -3
INDIANA*       MOCLDY     7  -2  66 NW12      30.38R WCI  -9
LATROBE        LGT SNOW   7   1  78 NW6       30.41R WCI  -3
WASHINGTON CO* CLEAR      3  -8  60 W3        30.40S
$$

PAZ004>006-010>012-017>019-024>028-033>037-041-042-045-046-049>053-140200-
CENTRAL PENNSYLVANIA

CITY           SKY/WX    TMP DP  RH WIND       PRES   REMARKS
BRADFORD       CLOUDY     0  -9  65 NW17G23   30.18R WCI -21
DUBOIS         CLOUDY     2  -6  69 W13       30.25R WCI -15
CLEARFIELD     CLEAR      4  -7  60 W9G17     30.28R WCI -10
JOHNSTOWN      CLOUDY     2  -6  69 W13       30.22S HAZE    WCI -15
ALTOONA        PTCLDY     6  -6  57 NW15      30.30R WCI -12
STATE COLLEGE  MOCLDY     7  -8  51 NW14G23   30.28R WCI -10
WILLIAMSPORT   CLEAR      9 -12  38 NW15G26   30.32R WCI  -8
SELINSGROVE    CLOUDY    11  -8  42 NW10G25   30.35R WCI  -3
FT INDIANTOWN  CLEAR     12 -10  37 W16G30    30.32R WCI  -5
CAPITAL CITY   MOCLDY    13  -8  39 NW18G30   30.36R WCI  -4
HARRISBURG     MOCLDY    14  -2  49 NW22G28   30.36R WCI  -4
YORK           CLOUDY    12  -8  40 W13G22    30.36R WCI  -3
$$

PAZ038>040-043-044-047-048-054-055-060>062-067>071-140200-
EASTERN PENNSYLVANIA

CITY           SKY/WX    TMP DP  RH WIND       PRES   REMARKS
SCRANTON       PTCLDY   N/A N/A N/A N9        30.25R
MOUNT POCONO   CLOUDY    -3 -15  56 NW17G24   30.09R WCI -24
ALLENTOWN      CLEAR      9 -10  42 NW12G18   30.30R WCI  -6
QUAKERTOWN*    CLEAR      9  -9  43 N8G17     30.29R WCI  -4
READING        CLEAR     11  -7  44 NW16      30.32R WCI  -6
LANCASTER      FLURRIES  11   2  67 NW18G25   30.33R WCI  -7
COATESVILLE    PTCLDY    10  -4  52 NW14      30.30R WCI  -5
POTTSTOWN      PTCLDY    10  -8  44 NW9G21    30.32R WCI  -3
BLUE BELL        N/A     10  -8  44 NW5       30.31R WCI   2
DOYLESTOWN     CLEAR      8 -12  39 NW12      30.29R WCI  -7
WILLOW GROVE   NOT AVBL
NORTH PHILA    CLEAR     13  -7  40 NW10G22   30.34R WCI   0
PHILADELPHIA   PTCLDY    15 -12  29 NW15G22   30.36R WCI   0
$$



USA.gov is the U.S. government's official web portal to all federal, state and local government web resources and services.